Location: Bluejay Creek
(37.7819°N, 119.6118°W)
Time: 18:53:50
(UTC+00:00)

Cosmos 1733 Rocket - Pass Details

Date: 05 August 2024
Orbit: 598 x 624 km, 82.5° (Epoch: 12 September)

Event Time Altitude Azimuth Distance (km) Brightness Sun altitude
Exits shadow 12:00:49 - 187° (S) 2,360 5.7 -12.2°
Reaches altitude 10° 12:01:44 10° 188° (S) 1,990 5.3 -12.1°
Maximum altitude 12:06:10 85° 277° (W) 632 3.0 -11.4°
Drops below altitude 10° 12:10:36 10° 6° (N) 1,996 6.2 -10.6°
Sets 12:12:50 0° 7° (N) 2,903 7.1 -10.2°
